This demonstration page uses our WeatherBlox Daily Observations layout. Learn more.

Left ArrowRight Arrow

Hourly Observations for March 14, 2018

Temp ( °F °C ) Dew Point ( °F °C ) Humidity (%) Winds ( mph kmh ) Pressure ( in mb ) Visibility ( mi km ) Precip ( " mm )
12:59 am 00:59 Partly Cloudy 38 3.3 23 -5 55 55 W 8 13 29.91 1013 10 16 0.00 0.00
1:59 am 01:59 Partly Cloudy 38 3.3 22 -5.6 52 52 W 7 11 29.91 1013 10 16 0.00 0.00
2:59 am 02:59 Partly Cloudy 37 2.8 23 -5 57 57 WSW 7 11 29.90 1012 10 16 0.00 0.00
3:59 am 03:59 Mostly Cloudy 37 2.8 23 -5 57 57 WSW 6 9 29.87 1012 10 16 0.00 0.00
4:59 am 04:59 Mostly Cloudy 36 2.2 23 -5 59 59 WSW 6 9 29.87 1012 10 16 0.00 0.00
5:59 am 05:59 Cloudy 36 2.2 24 -4.4 62 62 W 9 15 29.87 1012 10 16 0.00 0.00
6:59 am 06:59 Partly Cloudy 36 2.2 23 -5 59 59 W 7 11 29.87 1011 10 16 0.00 0.00
7:59 am 07:59 Mostly Cloudy 37 2.8 24 -4.4 59 59 NW 12 19 29.88 1012 10 16 0.00 0.00
8:59 am 08:59 Mostly Cloudy 38 3.3 21 -6.1 51 51 NW 12 19 29.88 1012 10 16 0.00 0.00
9:59 am 09:59 Mostly Cloudy 40 4.4 24 -4.4 53 53 W 12 19 29.88 1012 10 16 0.00 0.00
10:59 am 10:59 Partly Cloudy 40 4.4 24 -4.4 53 53 WNW 15 24 29.87 1012 10 16 0.00 0.00
11:59 am 11:59 Mostly Sunny 42 5.6 15 -9.4 33 33 W 20 31 29.86 1011 10 16 0.00 0.00
12:59 pm 12:59 Partly Cloudy 44 6.7 16 -8.9 32 32 WNW 18 30 29.85 1011 10 16 0.00 0.00
1:59 pm 13:59 Mostly Cloudy 43 6.1 12 -11.1 28 28 WNW 21 33 29.82 1010 10 16 0.00 0.00
2:59 pm 14:59 Partly Cloudy 45 7.2 14 -10 29 29 W 20 31 29.81 1010 10 16 0.00 0.00
3:59 pm 15:59 Partly Cloudy 42 5.6 11 -11.7 28 28 W 20 31 29.81 1009 10 16 0.00 0.00
4:59 pm 16:59 Mostly Cloudy 43 6.1 14 -10 31 31 WNW 25 41 29.81 1010 10 16 0.00 0.00
5:59 pm 17:59 Partly Cloudy 43 6.1 14 -10 31 31 WNW 21 33 29.82 1010 10 16 0.00 0.00
6:59 pm 18:59 Partly Cloudy 42 5.6 12 -11.1 29 29 W 15 24 29.84 1010 10 16 0.00 0.00
7:59 pm 19:59 Partly Cloudy 41 5 14 -10 33 33 W 16 26 29.86 1011 10 16 0.00 0.00
8:59 pm 20:59 Partly Cloudy 40 4.4 15 -9.4 36 36 W 15 24 29.88 1012 10 16 0.00 0.00
9:59 pm 21:59 Mostly Clear 39 3.9 16 -8.9 39 39 W 17 28 29.89 1012 10 16 0.00 0.00
10:59 pm 22:59 Mostly Clear 38 3.3 16 -8.9 41 41 W 20 31 29.91 1013 10 16 0.00 0.00
11:59 pm 23:59 Mostly Clear 37 2.8 15 -9.4 41 41 W 20 31 29.92 1013 10 16 0.00 0.00

Powered by AerisWeather